Location: Cactus School
(34.5700°N, 118.0931°W)
Time: 21:43:42
(UTC-07:00)

Vanguard 2 - Pass Details

Date: 25 April 2024
Orbit: 553 x 2914 km, 32.9° (Epoch: 18 May)

Event Time Altitude Azimuth Distance (km) Brightness Sun altitude
Exits shadow 03:23:16 32° 265° (W) 3,728 10.5 -29.8°
Maximum altitude 03:32:59 85° 181° (S) 2,846 10.1 -28.4°
Drops below altitude 10° 03:50:54 10° 95° (E) 5,583 12.4 -25.7°
Sets 03:54:56 0° 95° (E) 6,445 12.9 -25.0°
